Ibuki 2

operational
NORAD ID: 43672 Int'l Des: 2018-084 Owner: JAXA Country: J
LEOCIRCULARRETROGRADESSO

Ibuki 2について

説明を読み込み中...

リアルタイム位置

3D地球を読み込み中...

次回通過

高度履歴

Altitude vs Time

uPlot chart will show altitude changes over time

軌道要素

1 43672U 18084B 25342.57450722 .00004796 00000-0 57893-3 0 9992
2 43672 97.8679 91.5851 0001518 91.5072 268.6316 14.84236599385287
Epoch: Dec 8, 2025 • Age: 10 hours

現在のステータス

高度 618.1 km
速度 7.55 km/s
衛星直下点 10.10°N, 168.46°W
打ち上げ日 Oct 29, 2018
運用期間 7.1 years
タイプ other

技術仕様

分類 Payload
質量 1750.00 kg
乾燥質量 1700.00 kg
総質量 1750.00 kg
長さ 5.30 m
直径 2.00 m
スパン 16.50 m
形状 Box + 2 Pan
製造者 MELCO
バスタイプ GOSAT
フェーズステータス In Orbit
所有者/国 JAXA/J

大規模コンステレーション

Loading constellations...